Tracking 19625 objects as of 26-May-2019
HD Live streaming from Space Station
objects crossing your sky now
Watch Starlink satellites crossing your sky!

IRIDIUM 44

Track IRIDIUM 44 now!
10-day predictions
IRIDIUM 44 is classified as:


NORAD ID: 25078
Int'l Code: 1997-077B
Perigee: 768.6 km
Apogee: 774.3 km
Inclination: 86.4 °
Period: 100.1 minutes
Semi major axis: 7142 km
RCS: 3.743 m2 (large)
Launch date: December 8, 1997
Source: United States (US)
Launch site: Taiyaun Space Center, China (TSC)
aabbcc
Your satellite tracking list
Your tracking list is empty




NASA's NSSDC Master Catalog

Two Line Element Set (TLE):
1 25078U 97077B   19145.87244311 +.00000091 +00000-0 +23276-4 0  9996
2 25078 086.3975 073.7966 0004019 093.5230 266.6428 14.38250842125319
Source of the keplerian elements: AFSPC